This demonstration page uses our WeatherBlox Daily Observations layout. Learn more.

Left ArrowRight Arrow

Hourly Observations for March 16, 2017

Temp ( °F °C ) Dew Point ( °F °C ) Humidity (%) Winds ( mph kmh ) Pressure ( in mb ) Visibility ( mi km ) Precip ( " mm )
12:52 am 00:52 Cloudy 38 3.3 16 -8.9 41 41 SSE 10 17 30.30 1026 10 16 0.00 0.00
1:52 am 01:52 Cloudy 38 3.3 18 -7.8 44 44 SSE 13 20 30.28 1025 10 16 0.00 0.00
2:52 am 02:52 Cloudy 38 3.3 19 -7.2 46 46 SSE 12 19 30.28 1025 10 16 0.00 0.00
3:52 am 03:52 Cloudy 38 3.3 21 -6.1 51 51 SSE 10 17 30.26 1025 10 16 0.00 0.00
4:52 am 04:52 Cloudy 38 3.3 22 -5.6 52 52 SSE 9 15 30.25 1025 10 16 0.00 0.00
5:52 am 05:52 Mostly Cloudy 38 3.3 22 -5.6 52 52 SSE 10 17 30.25 1025 10 16 0.00 0.00
6:52 am 06:52 Clear 38 3.3 23 -5 55 55 SSE 14 22 30.25 1024 10 16 0.00 0.00
7:52 am 07:52 Sunny 38 3.3 24 -4.4 57 57 SSE 13 20 30.24 1024 10 16 0.00 0.00
8:52 am 08:52 Mostly Sunny 40 4.4 25 -3.9 55 55 SE 14 22 30.24 1024 10 16 0.00 0.00
9:52 am 09:52 Sunny 45 7.2 28 -2.2 52 52 SSE 15 24 30.22 1024 10 16 0.00 0.00
10:52 am 10:52 Sunny 50 10 32 0 50 50 SSE 15 24 30.21 1023 10 16 0.00 0.00
11:20 am 11:20 Mostly Cloudy 50 10 32 0 50 50 S 14 22 30.24 1024 10 16 0.00 0.00
11:49 am 11:49 Partly Cloudy 52 11 34 1 50 50 SSE 17 28 30.21 1023 10 16 0.00 0.00
11:52 am 11:52 Partly Cloudy 53 11.7 34 1.1 48 48 SSE 17 28 30.19 1023 10 16 0.00 0.00
12:52 pm 12:52 Sunny 55 12.8 36 2.2 49 49 S 17 28 30.18 1022 10 16 0.00 0.00
1:52 pm 13:52 Mostly Sunny 57 13.9 37 2.8 47 47 S 17 28 30.15 1021 10 16 0.00 0.00
2:25 pm 14:25 Cloudy 56 13.3 37 2.8 49 49 S 16 26 30.12 1020 10 16 0.00 0.00
2:52 pm 14:52 Mostly Cloudy 57 13.9 37 2.8 47 47 S 17 28 30.11 1020 10 16 0.00 0.00
3:52 pm 15:52 Mostly Cloudy 57 13.9 38 3.3 49 49 SSE 20 31 30.09 1019 10 16 0.00 0.00
4:52 pm 16:52 Partly Cloudy 58 14.4 39 3.9 50 50 S 16 26 30.07 1018 10 16 0.00 0.00
5:52 pm 17:52 Sunny 56 13.3 38 3.3 51 51 SSE 21 33 30.05 1018 10 16 0.00 0.00
6:52 pm 18:52 Sunny 54 12.2 39 3.9 57 57 SSE 18 30 30.04 1017 10 16 0.00 0.00
7:52 pm 19:52 Clear 50 10 37 2.8 61 61 SSE 23 37 30.03 1017 10 16 0.00 0.00
8:41 pm 20:41 Mostly Cloudy 49 9.4 37 2.8 64 64 SSE 17 28 30.06 1018 10 16 0.00 0.00
8:52 pm 20:52 Cloudy 50 10 37 2.8 61 61 SSE 18 30 30.04 1017 10 16 0.00 0.00
9:52 pm 21:52 Cloudy 50 10 38 3.3 63 63 SSE 20 31 30.05 1018 10 16 0.00 0.00
10:52 pm 22:52 Cloudy 50 10 38 3.3 63 63 SSE 15 24 30.05 1018 10 16 0.00 0.00
11:26 pm 23:26 Cloudy 49 9.4 38 3.3 66 66 SSE 17 28 30.06 1018 10 16 0.00 0.00
11:36 pm 23:36 Cloudy 48 9 37 3 66 66 S 14 22 30.06 1018 10 16 0.00 0.00
11:52 pm 23:52 Cloudy 49 9.4 38 3.3 66 66 S 13 20 30.05 1018 10 16 0.00 0.00

Powered by AerisWeather